Precipitable_Water
0.58 0.54 0.51 0.52 0.50 0.47 0.44 0.41 0.38 0.37 0.37 0.36 0.34 0.33 0.35 0.38 0.35 0.31 0.29 0.43 0.52 0.58 0.70 0.85 0.99 1.20 1.19 1.20 1.39 1.47 1.25 1.20 1.06 0.99 1.03 1.21 1.08 1.38 1.38 1.10 1.12 1.28 1.18 1.23 1.36
0.66 0.64 0.60 0.54 0.50 0.49 0.46 0.43 0.39 0.36 0.35 0.35 0.34 0.35 0.36 0.37 0.25 0.20 0.38 0.42 0.41 0.43 0.55 0.74 0.84 0.99 1.00 1.11 1.15 1.28 1.20 1.21 1.35 1.19 0.98 1.14 1.13 1.05 1.13 1.09 1.05 1.09 1.18 1.28 1.32
0.72 0.71 0.67 0.63 0.58 0.50 0.46 0.44 0.40 0.36 0.34 0.34 0.34 0.34 0.36 0.37 0.19 0.28 0.44 0.39 0.38 0.45 0.59 0.86 0.88 0.91 0.89 1.04 1.04 1.29 1.16 1.22 1.23 1.18 1.07 1.08 1.00 1.18 1.26 1.02 1.00 0.95 1.09 1.17 1.26
0.74 0.73 0.71 0.67 0.62 0.58 0.51 0.44 0.40 0.37 0.35 0.34 0.33 0.34 0.35 0.29 0.17 0.57 0.42 0.34 0.42 0.37 0.63 0.82 0.70 0.72 0.76 0.82 0.93 1.00 1.26 1.30 1.16 1.02 1.11 1.09 0.95 1.00 1.23 1.20 1.19 1.09 1.18 1.15 1.17
0.74 0.73 0.71 0.69 0.64 0.58 0.54 0.49 0.41 0.39 0.37 0.35 0.35 0.35 0.27 0.24 0.18 0.50 0.33 0.33 0.41 0.35 0.63 0.73 0.60 0.62 0.67 0.75 0.77 0.80 1.13 1.28 1.18 0.89 1.05 1.12 0.95 1.04 1.10 1.49 1.41 1.21 1.18 1.18 1.19
0.73 0.71 0.68 0.66 0.64 0.59 0.53 0.51 0.45 0.41 0.41 0.38 0.38 0.37 0.21 0.11 0.27 0.39 0.43 0.27 0.47 0.55 0.71 0.72 0.60 0.61 0.63 0.70 0.66 0.76 0.98 1.03 1.12 0.94 0.87 1.11 1.06 1.03 1.09 1.23 1.12 1.09 1.11 1.23 1.22
0.70 0.67 0.64 0.63 0.63 0.60 0.51 0.48 0.47 0.44 0.43 0.42 0.42 0.33 0.22 0.18 0.22 0.25 0.26 0.34 0.56 0.60 0.69 0.69 0.66 0.57 0.59 0.57 0.64 0.67 0.67 0.82 0.92 0.88 0.84 1.09 1.13 0.91 1.05 1.22 1.03 1.03 1.11 1.21 1.26
0.67 0.66 0.64 0.61 0.58 0.58 0.54 0.45 0.46 0.46 0.45 0.44 0.43 0.35 0.20 0.25 0.26 0.21 0.18 0.32 0.52 0.65 0.68 0.65 0.67 0.61 0.53 0.58 0.54 0.51 0.59 0.61 0.80 0.83 0.84 0.77 0.89 1.06 1.15 1.16 1.01 1.04 1.10 1.16 1.26
0.65 0.65 0.62 0.59 0.55 0.53 0.51 0.43 0.43 0.46 0.46 0.45 0.43 0.36 0.30 0.28 0.12 0.12 0.16 0.19 0.33 0.43 0.64 0.60 0.55 0.53 0.52 0.42 0.41 0.44 0.45 0.54 0.66 0.81 0.79 0.67 0.83 1.12 1.24 1.05 0.94 1.04 1.06 1.12 1.23
0.61 0.61 0.62 0.58 0.53 0.49 0.46 0.41 0.50 0.46 0.54 0.48 0.44 0.37 0.32 0.22 0.29 0.28 0.25 0.17 0.25 0.27 0.52 0.43 0.37 0.37 0.40 0.33 0.31 0.41 0.43 0.51 0.57 0.70 0.74 0.76 0.81 1.17 1.26 1.10 0.98 0.96 1.03 1.09 1.16
0.58 0.60 0.60 0.57 0.51 0.46 0.49 0.46 0.45 0.55 0.39 0.43 0.36 0.35 0.31 0.26 0.27 0.18 0.21 0.20 0.17 0.22 0.24 0.39 0.27 0.23 0.28 0.30 0.37 0.45 0.50 0.49 0.61 0.75 0.72 0.73 0.86 1.02 1.21 1.20 1.04 0.95 0.92 1.04 1.11
0.57 0.59 0.57 0.56 0.51 0.46 0.54 0.37 0.29 0.33 0.22 0.28 0.24 0.20 0.23 0.21 0.15 0.16 0.19 0.15 0.15 0.16 0.22 0.30 0.25 0.29 0.26 0.30 0.31 0.36 0.40 0.47 0.69 0.80 0.79 0.87 0.83 0.97 1.08 1.23 1.24 1.08 0.90 0.94 1.08
0.61 0.60 0.56 0.54 0.51 0.51 0.44 0.38 0.39 0.33 0.18 0.25 0.19 0.21 0.21 0.17 0.13 0.17 0.17 0.16 0.14 0.16 0.21 0.22 0.26 0.33 0.30 0.25 0.26 0.29 0.35 0.41 0.55 0.80 0.86 0.86 0.96 0.92 1.21 1.20 1.45 1.17 1.09 0.95 0.99
0.65 0.61 0.53 0.53 0.58 0.46 0.45 0.44 0.43 0.35 0.15 0.17 0.16 0.18 0.17 0.16 0.14 0.19 0.17 0.17 0.16 0.15 0.16 0.23 0.27 0.30 0.28 0.29 0.28 0.24 0.33 0.38 0.46 0.73 0.59 0.76 0.70 0.91 1.06 1.09 1.21 1.28 1.16 1.07 0.96
0.68 0.63 0.51 0.54 0.44 0.43 0.42 0.45 0.41 0.30 0.13 0.24 0.23 0.27 0.21 0.15 0.22 0.17 0.17 0.17 0.17 0.17 0.19 0.17 0.26 0.28 0.33 0.29 0.32 0.28 0.31 0.34 0.41 0.57 0.60 0.71 0.68 0.79 0.99 0.98 0.93 1.15 1.20 1.14 1.06
0.68 0.66 0.56 0.60 0.64 0.50 0.48 0.46 0.36 0.16 0.12 0.22 0.26 0.21 0.17 0.15 0.18 0.22 0.17 0.16 0.18 0.17 0.19 0.20 0.27 0.32 0.37 0.39 0.36 0.35 0.32 0.29 0.35 0.37 0.39 0.57 0.71 0.73 0.81 0.84 0.95 1.04 1.13 1.16 1.09
0.64 0.64 0.55 0.55 0.50 0.52 0.49 0.40 0.23 0.15 0.28 0.24 0.21 0.22 0.18 0.20 0.20 0.18 0.15 0.13 0.11 0.12 0.16 0.17 0.22 0.32 0.38 0.36 0.39 0.36 0.28 0.21 0.22 0.24 0.27 0.47 0.51 0.61 0.91 1.04 1.03 1.19 1.15 1.10 1.15
0.63 0.61 0.53 0.54 0.56 0.52 0.46 0.32 0.19 0.32 0.28 0.28 0.24 0.22 0.18 0.23 0.23 0.21 0.18 0.15 0.16 0.15 0.16 0.17 0.14 0.25 0.31 0.31 0.35 0.33 0.24 0.21 0.19 0.21 0.24 0.39 0.36 0.44 0.79 0.93 1.17 1.14 1.33 1.17 1.12
0.63 0.65 0.56 0.58 0.56 0.50 0.38 0.25 0.29 0.33 0.30 0.24 0.23 0.18 0.19 0.24 0.24 0.22 0.21 0.22 0.25 0.20 0.18 0.16 0.17 0.24 0.31 0.31 0.34 0.35 0.24 0.26 0.28 0.32 0.31 0.34 0.37 0.50 0.84 0.86 0.87 0.94 1.11 1.17 1.15
0.59 0.60 0.53 0.51 0.51 0.46 0.32 0.28 0.33 0.32 0.28 0.26 0.21 0.27 0.20 0.25 0.21 0.21 0.23 0.29 0.28 0.26 0.23 0.23 0.21 0.25 0.24 0.27 0.30 0.35 0.37 0.24 0.28 0.29 0.31 0.36 0.39 0.40 0.64 0.72 0.78 0.81 0.92 1.14 1.29
0.62 0.55 0.59 0.54 0.47 0.39 0.31 0.36 0.33 0.28 0.24 0.23 0.25 0.26 0.26 0.29 0.27 0.22 0.23 0.30 0.28 0.26 0.21 0.18 0.20 0.22 0.24 0.21 0.22 0.28 0.33 0.33 0.29 0.31 0.32 0.33 0.38 0.59 0.71 0.75 0.73 0.81 0.93 1.06 1.26
0.57 0.50 0.65 0.50 0.37 0.43 0.35 0.34 0.30 0.25 0.27 0.25 0.25 0.27 0.28 0.29 0.26 0.24 0.31 0.32 0.31 0.29 0.19 0.20 0.20 0.19 0.25 0.28 0.27 0.30 0.31 0.36 0.24 0.26 0.33 0.34 0.46 0.71 0.76 0.78 0.82 0.76 0.84 0.94 0.96
0.53 0.50 0.57 0.41 0.40 0.43 0.44 0.34 0.27 0.27 0.27 0.27 0.25 0.26 0.30 0.28 0.27 0.30 0.32 0.33 0.33 0.30 0.30 0.34 0.21 0.15 0.22 0.23 0.28 0.25 0.29 0.35 0.38 0.30 0.31 0.32 0.46 0.72 0.81 0.90 0.98 0.85 0.88 0.95 1.02
0.55 0.48 0.54 0.46 0.39 0.32 0.32 0.32 0.31 0.33 0.26 0.26 0.26 0.28 0.26 0.26 0.31 0.33 0.31 0.31 0.31 0.30 0.30 0.33 0.23 0.21 0.19 0.18 0.31 0.25 0.27 0.33 0.33 0.31 0.28 0.34 0.58 0.66 0.77 0.85 1.15 1.05 0.98 1.01 1.00
0.62 0.50 0.39 0.40 0.41 0.33 0.30 0.32 0.31 0.31 0.36 0.30 0.27 0.28 0.26 0.26 0.29 0.30 0.33 0.33 0.32 0.30 0.28 0.28 0.19 0.21 0.29 0.36 0.36 0.33 0.27 0.29 0.32 0.31 0.28 0.34 0.48 0.62 0.68 0.83 1.06 1.14 1.15 1.14 1.04
0.47 0.47 0.52 0.40 0.33 0.31 0.34 0.40 0.32 0.34 0.27 0.32 0.26 0.29 0.31 0.29 0.37 0.36 0.37 0.35 0.33 0.33 0.29 0.30 0.21 0.23 0.29 0.39 0.36 0.33 0.33 0.30 0.33 0.37 0.32 0.33 0.39 0.67 0.74 0.89 0.96 1.10 1.11 1.08 1.07
0.60 0.56 0.41 0.41 0.35 0.33 0.38 0.33 0.30 0.32 0.33 0.31 0.29 0.29 0.27 0.37 0.41 0.47 0.46 0.41 0.40 0.36 0.34 0.32 0.29 0.24 0.17 0.30 0.34 0.32 0.33 0.35 0.32 0.38 0.35 0.31 0.56 0.82 0.90 0.92 1.07 1.04 1.07 1.08 1.15
Wind_Speed
18 18 18 19 18 18 18 18 18 17 17 17 16 15 15 15 15 14 13 12 13 13 13 13 14 13 11 9 9 5 8 3 6 5 14 12 14 10 7 10 9 10 16 19 19
19 20 20 19 19 19 19 19 18 18 18 18 17 16 15 15 15 16 15 14 15 15 15 16 15 14 12 10 6 1 4 5 1 5 4 10 10 10 10 11 9 14 19 19 19
21 22 22 21 21 20 20 20 19 19 19 18 17 16 15 14 14 13 13 14 15 17 17 17 16 16 14 12 8 6 4 3 4 7 4 11 7 11 3 10 11 16 18 18 18
23 24 24 23 23 22 22 21 20 20 19 18 17 17 16 14 11 10 13 13 14 17 18 18 18 18 16 14 12 7 7 5 6 5 7 3 8 8 5 13 13 15 16 17 17
24 26 25 25 24 23 23 22 21 20 20 19 18 16 15 16 17 14 13 13 14 17 19 19 20 18 18 16 13 10 11 8 9 4 7 6 6 11 8 8 13 14 15 17 16
25 26 25 24 24 23 23 23 21 20 19 18 17 16 16 18 16 14 15 14 15 18 19 19 20 19 18 18 15 11 11 10 9 7 7 6 8 9 13 12 11 14 15 16 16
26 25 24 23 23 23 23 23 21 20 18 16 16 17 19 21 16 15 17 17 17 18 19 19 20 19 19 17 16 16 13 12 11 10 8 12 11 11 10 9 10 12 15 15 16
25 25 24 23 22 22 21 19 19 18 17 15 15 16 17 15 20 18 18 19 19 19 19 18 21 20 20 17 19 16 19 16 16 13 12 11 10 13 9 10 11 13 14 15 17
25 25 24 22 21 20 19 16 15 15 16 15 14 15 17 15 18 20 21 20 20 20 21 17 19 22 20 20 18 19 18 19 16 17 14 12 13 13 13 12 12 13 14 15 16
25 25 24 22 21 19 17 14 10 11 12 14 16 14 16 15 14 15 19 22 21 20 21 20 19 22 22 22 21 18 20 19 17 16 18 16 9 12 17 13 12 12 14 15 16
25 25 24 22 20 17 14 9 7 7 12 15 12 17 12 14 16 17 20 22 23 23 24 23 22 23 25 24 23 22 19 20 18 14 16 15 13 8 15 15 13 13 13 15 16
25 25 24 21 18 14 12 10 7 9 11 14 15 15 16 14 15 18 20 22 25 26 25 25 26 24 23 24 24 24 22 21 13 12 15 15 16 12 20 17 16 15 13 15 16
25 25 23 20 16 12 10 9 10 11 12 14 13 13 12 14 15 17 19 22 24 27 27 28 25 25 24 25 25 26 25 20 17 16 17 11 17 17 15 15 20 17 15 14 17
25 24 21 18 12 12 8 11 11 10 11 14 15 14 12 12 16 13 18 20 23 26 28 28 27 25 27 25 27 25 27 23 20 17 17 17 18 12 16 13 14 18 17 15 16
25 22 19 15 14 11 12 11 10 7 7 8 11 11 12 15 9 16 17 19 21 23 25 29 29 29 23 29 25 25 23 28 23 21 18 23 21 20 19 28 28 19 19 17 17
24 21 17 13 11 11 11 10 7 6 7 7 9 12 16 17 15 12 15 19 18 22 24 27 27 30 25 24 26 25 25 24 29 24 23 25 21 16 19 19 21 23 23 20 18
23 20 14 12 10 12 10 7 6 8 4 6 8 9 15 16 16 15 15 18 19 19 23 26 29 26 30 24 26 26 27 22 23 26 26 24 25 21 17 20 18 21 27 23 21
23 17 11 11 11 11 8 7 9 10 5 6 10 12 13 13 15 15 17 17 19 19 17 22 26 29 26 30 26 28 29 26 25 23 24 26 26 23 20 20 21 19 20 20 23
21 12 10 10 10 8 7 8 8 8 7 8 11 12 14 11 12 14 15 12 11 15 16 15 22 26 31 28 29 26 30 30 24 23 21 23 22 20 20 18 19 23 23 21 26
17 13 9 10 9 8 8 12 8 9 12 11 12 7 13 14 16 15 16 11 11 12 14 17 16 22 31 30 31 30 25 29 27 25 22 21 22 17 21 20 15 12 18 22 26
13 10 6 10 8 8 10 6 7 6 9 9 10 11 11 11 10 15 16 11 14 14 13 17 20 21 21 29 31 30 28 27 29 26 21 18 15 16 20 17 20 19 18 21 23
13 9 9 10 9 8 7 6 9 8 7 8 10 12 12 11 14 15 4 11 12 14 16 16 18 22 23 21 28 29 30 28 28 29 24 20 10 9 15 15 8 15 11 10 16
10 12 7 8 8 9 5 9 10 10 8 9 10 11 10 14 13 17 10 12 11 11 11 12 17 19 22 20 25 32 31 31 26 28 29 21 10 11 18 14 12 15 13 10 11
9 8 6 8 8 9 12 12 8 8 11 10 13 11 14 15 15 15 18 14 14 17 14 17 17 18 20 21 13 29 34 31 31 26 28 26 14 11 13 18 8 10 13 10 12
8 7 9 9 7 11 10 10 10 8 7 11 11 12 15 15 17 17 20 15 15 17 18 18 20 20 21 17 17 18 31 35 30 31 28 25 19 16 17 18 12 9 9 9 8
10 9 10 9 9 10 6 5 9 6 7 9 9 12 14 13 14 15 15 17 19 16 19 20 21 20 20 17 19 20 19 31 30 28 29 26 14 14 18 15 12 10 10 9 7
9 9 9 6 8 8 5 5 4 6 6 7 11 13 15 15 19 21 21 19 18 16 16 17 19 20 22 22 21 24 24 22 28 28 28 25 11 11 12 12 11 11 10 11 8
Wind_Direction
330 325 320 314 309 304 299 296 292 289 286 283 280 277 274 273 271 255 242 234 225 223 217 212 211 215 216 232 248 287 360 62 121 98 129 132 121 114 123 119 121 119 145 146 145
329 325 321 316 309 302 298 295 292 288 285 281 277 274 273 273 263 251 238 232 229 223 216 211 212 211 216 224 237 196 148 163 171 91 161 136 128 126 139 127 119 124 138 145 149
327 323 319 313 309 303 296 292 289 287 283 278 274 271 269 268 258 234 225 229 229 220 216 213 216 215 219 223 225 167 166 208 253 140 111 131 136 117 141 143 139 137 148 152 154
325 322 318 313 307 302 296 291 286 284 279 275 271 267 262 250 244 229 228 231 226 216 213 218 217 218 219 222 220 192 180 229 246 129 138 191 146 136 127 144 147 148 153 158 162
326 324 319 313 308 300 294 289 286 280 276 271 266 261 254 240 243 234 231 227 220 211 211 216 215 218 220 222 227 213 213 248 251 183 153 148 160 134 132 143 143 154 159 165 168
328 326 321 316 312 303 293 287 281 278 274 266 259 252 244 243 235 235 229 226 220 212 216 218 216 219 226 226 238 225 193 236 216 183 194 180 173 143 140 143 150 162 167 170 173
331 329 327 323 319 312 300 286 276 273 268 261 254 245 244 237 237 235 232 227 220 215 219 219 218 221 223 233 230 231 234 233 219 218 200 170 203 150 149 148 160 169 174 177 178
335 332 329 325 323 319 311 293 274 266 259 254 248 242 243 241 237 236 231 225 220 221 222 222 220 227 226 231 234 228 228 235 221 213 209 207 190 178 188 181 179 178 180 183 183
336 335 332 327 323 322 318 305 278 260 251 246 241 241 246 239 238 234 226 223 220 221 219 225 223 222 224 226 229 225 223 219 230 210 208 205 187 206 197 175 179 181 185 188 187
336 335 333 329 324 321 320 310 286 264 245 238 245 244 245 240 226 229 223 221 219 218 218 218 221 219 220 216 218 219 217 223 222 211 214 207 179 186 197 183 180 185 189 192 193
334 334 332 328 323 320 322 317 292 263 242 241 239 239 244 237 235 234 225 220 220 218 217 215 217 217 218 219 220 228 219 226 223 209 215 222 184 192 231 200 190 181 192 196 197
333 333 332 330 324 317 314 309 309 282 273 249 243 247 245 243 241 230 218 217 217 217 216 217 222 221 219 220 222 225 231 228 217 229 212 188 191 202 210 221 198 190 191 198 197
331 331 331 329 325 318 309 313 300 290 264 250 234 239 235 231 234 223 217 217 217 219 217 221 220 223 224 219 221 220 226 227 213 208 223 203 201 206 224 234 203 200 197 196 199
330 330 330 329 323 324 310 315 304 291 271 233 229 233 232 235 237 225 218 218 223 223 222 224 223 217 220 225 218 225 219 227 221 209 219 199 221 218 206 236 230 212 197 199 200
328 328 326 329 319 322 311 309 308 283 277 198 212 231 228 227 214 223 226 225 229 224 222 222 219 223 224 220 220 224 225 222 231 221 224 205 230 220 215 229 238 226 204 205 202
327 326 323 322 315 321 315 309 295 269 263 238 247 244 228 229 232 218 221 224 229 231 227 228 221 221 224 225 225 221 226 232 225 234 232 226 238 215 219 223 223 227 233 206 204
326 322 315 314 315 318 313 298 275 265 264 252 248 244 234 224 222 225 216 217 222 221 228 220 226 219 220 226 219 217 216 219 220 223 231 231 227 232 204 217 207 222 227 207 206
325 319 308 307 309 315 304 274 270 291 281 278 268 264 245 224 233 222 226 223 221 231 235 220 218 222 215 221 221 216 216 216 219 221 228 234 241 230 221 219 219 229 224 217 206
324 315 312 304 303 307 295 262 291 315 296 301 280 256 233 222 235 226 227 228 218 219 232 236 231 220 224 216 221 220 219 220 234 223 229 229 231 240 198 216 229 228 229 237 210
324 311 293 315 298 289 277 268 293 289 282 278 268 260 250 228 221 232 220 217 225 226 235 238 251 234 217 218 219 225 217 218 224 229 234 230 225 220 207 214 216 208 230 232 203
316 312 301 315 295 277 263 301 293 298 292 272 277 265 254 266 233 236 233 219 227 238 246 242 240 237 226 212 215 214 222 220 224 224 228 230 227 238 206 203 205 212 209 198 207
306 304 304 305 288 271 287 295 286 287 279 269 262 261 262 262 246 240 238 222 234 245 241 238 238 229 234 213 216 217 217 221 217 220 226 231 231 241 209 217 252 210 199 192 211
305 299 303 295 296 298 285 278 285 291 283 277 269 256 268 255 249 247 238 231 244 239 226 240 223 226 226 228 217 219 222 217 224 221 223 229 232 221 207 214 269 201 198 207 212
307 307 288 299 298 288 301 285 275 273 279 275 273 268 263 253 245 247 243 241 244 240 238 228 230 232 223 221 252 217 218 220 220 219 219 221 188 196 198 180 226 185 201 213 219
302 312 303 308 310 301 298 297 285 267 284 283 270 260 263 263 254 241 244 232 238 229 228 224 235 236 237 252 247 238 214 215 218 218 218 218 206 203 198 192 210 200 191 196 211
305 306 304 295 304 290 289 298 282 290 295 292 283 287 274 263 262 259 257 234 236 222 225 228 234 236 237 239 235 228 221 214 218 216 220 223 226 202 190 195 204 216 205 208 218
313 297 294 290 285 288 303 298 282 289 299 300 290 290 281 280 260 251 250 245 235 232 232 234 231 227 233 229 228 225 219 217 214 217 213 213 189 178 185 204 202 214 223 218 225